CES9032 ZGKL-ZSCN

Flight info

Callsign CES9032
Flight time 1h 7m
Altitude 35100
Route ONEMI R343 ABTUD W227 GUTGO
Aircraft A320/M-SDE1FGHIJ1RWXYZ/LB1

Departure

Time 2026-05-04 19:30
Airport Guilin Liangjiang International Airport (ZGKL)

Arrival

Time 2026-05-04 20:38
Airport Nanchang Changbei International Airport (ZSCN)
Time Latitude Longitude Altitude Speed Heading
2026-05-04 19:06 25.21364 110.04422 577 ft 0 kts
2026-05-04 19:20 25.21355 110.04421 577 ft 2 kts
2026-05-04 19:20 25.21340 110.04420 577 ft 2 kts
2026-05-04 19:20 25.21329 110.04420 577 ft 0 kts
2026-05-04 19:20 25.21317 110.04421 577 ft 2 kts 326°
2026-05-04 19:21 25.21309 110.04433 577 ft 0 kts 280°
2026-05-04 19:21 25.21309 110.04439 577 ft 1 kts 272°
2026-05-04 19:21 25.21309 110.04442 577 ft 0 kts 274°
2026-05-04 19:24 25.21309 110.04435 577 ft 1 kts 274°
2026-05-04 19:25 25.21309 110.04434 577 ft 0 kts 274°
2026-05-04 19:25 25.21311 110.04416 577 ft 3 kts 275°
2026-05-04 19:25 25.21314 110.04377 577 ft 7 kts 275°
2026-05-04 19:25 25.21319 110.04308 577 ft 10 kts 275°
2026-05-04 19:26 25.21332 110.04216 577 ft 13 kts 291°
2026-05-04 19:26 25.21361 110.04138 577 ft 9 kts 285°
2026-05-04 19:26 25.21346 110.04086 577 ft 8 kts 215°
2026-05-04 19:26 25.21285 110.04069 577 ft 10 kts 185°
2026-05-04 19:27 25.21205 110.04061 577 ft 13 kts 184°
2026-05-04 19:27 25.21097 110.04051 577 ft 17 kts 185°
2026-05-04 19:27 25.20960 110.04037 577 ft 21 kts 184°
2026-05-04 19:27 25.20809 110.04022 577 ft 21 kts 186°
2026-05-04 19:28 25.20655 110.04006 577 ft 21 kts 185°
2026-05-04 19:28 25.20564 110.03987 577 ft 6 kts 230°
2026-05-04 19:28 25.20559 110.03943 577 ft 0 kts 275°
2026-05-04 19:28 25.20559 110.03937 577 ft 1 kts 274°
2026-05-04 19:29 25.20561 110.03920 577 ft 3 kts 275°
2026-05-04 19:29 25.20565 110.03869 577 ft 9 kts 275°
2026-05-04 19:29 25.20612 110.03817 577 ft 11 kts
2026-05-04 19:29 25.20631 110.03818 577 ft 6 kts
2026-05-04 19:30 25.20900 110.03844 577 ft 76 kts
2026-05-04 19:30 25.21663 110.03917 578 ft 140 kts
2026-05-04 19:30 25.22748 110.04018 876 ft 162 kts
2026-05-04 19:30 25.23872 110.04105 1493 ft 163 kts
2026-05-04 19:31 25.25002 110.04187 2041 ft 166 kts
2026-05-04 19:31 25.26211 110.04270 2410 ft 180 kts
2026-05-04 19:31 25.27505 110.04362 2833 ft 192 kts
2026-05-04 19:31 25.28886 110.04461 3269 ft 204 kts
2026-05-04 19:32 25.30369 110.04570 3630 ft 224 kts
2026-05-04 19:32 25.31989 110.04690 4070 ft 241 kts
2026-05-04 19:32 25.33698 110.04698 4667 ft 250 kts 347°
2026-05-04 19:32 25.35207 110.03775 5394 ft 253 kts 310°
2026-05-04 19:33 25.35911 110.02049 6210 ft 252 kts 274°
2026-05-04 19:33 25.35745 110.00137 6989 ft 254 kts 252°
2026-05-04 19:33 25.34835 109.98473 7732 ft 260 kts 223°
2026-05-04 19:33 25.33239 109.97558 8531 ft 266 kts 191°
2026-05-04 19:34 25.31388 109.97761 9293 ft 274 kts 160°
2026-05-04 19:34 25.29630 109.98648 9761 ft 279 kts 157°
2026-05-04 19:34 25.27861 109.99569 9850 ft 279 kts 157°
2026-05-04 19:34 25.26097 110.00473 9851 ft 278 kts 158°
2026-05-04 19:35 25.24330 110.01362 9852 ft 278 kts 158°
2026-05-04 19:35 25.22556 110.02245 9852 ft 277 kts 159°
2026-05-04 19:35 25.20803 110.03156 9853 ft 278 kts 151°
2026-05-04 19:35 25.19432 110.04677 9851 ft 286 kts 118°
2026-05-04 19:36 25.18916 110.06862 9876 ft 304 kts 94°
2026-05-04 19:36 25.18788 110.09215 9874 ft 308 kts 92°
2026-05-04 19:36 25.18651 110.11580 9870 ft 310 kts 93°
2026-05-04 19:36 25.18491 110.13966 9849 ft 309 kts 94°
2026-05-04 19:37 25.18314 110.16334 9857 ft 308 kts 94°
2026-05-04 19:37 25.18128 110.18695 9867 ft 311 kts 94°
2026-05-04 19:37 25.17934 110.21095 10259 ft 318 kts 94°
2026-05-04 19:37 25.17730 110.23560 10782 ft 328 kts 94°
2026-05-04 19:38 25.17517 110.26151 11123 ft 345 kts 95°
2026-05-04 19:38 25.17303 110.28849 11562 ft 356 kts 92°
2026-05-04 19:38 25.17614 110.31547 12119 ft 358 kts 67°
2026-05-04 19:38 25.18942 110.33838 12757 ft 352 kts 41°
2026-05-04 19:39 25.20849 110.35540 13362 ft 353 kts 33°
2026-05-04 19:39 25.22826 110.37180 13897 ft 358 kts 32°
2026-05-04 19:39 25.24823 110.38854 14448 ft 362 kts 33°
2026-05-04 19:39 25.26831 110.40565 14983 ft 367 kts 33°
2026-05-04 19:40 25.28857 110.42311 15536 ft 372 kts 33°
2026-05-04 19:40 25.30905 110.44090 16068 ft 377 kts 33°
2026-05-04 19:40 25.32982 110.45901 16584 ft 380 kts 33°
2026-05-04 19:40 25.35073 110.47727 17104 ft 385 kts 33°
2026-05-04 19:41 25.37181 110.49573 17609 ft 389 kts 33°
2026-05-04 19:41 25.39313 110.51440 18103 ft 392 kts 32°
2026-05-04 19:41 25.41466 110.53325 18590 ft 396 kts 32°
2026-05-04 19:41 25.43635 110.55225 19056 ft 399 kts 32°
2026-05-04 19:42 25.45821 110.57141 19540 ft 402 kts 32°
2026-05-04 19:42 25.48023 110.59073 20002 ft 406 kts 32°
2026-05-04 19:42 25.50250 110.61028 20451 ft 409 kts 32°
2026-05-04 19:42 25.52493 110.62997 20895 ft 413 kts 32°
2026-05-04 19:43 25.54824 110.64859 21295 ft 409 kts 20°
2026-05-04 19:43 25.57489 110.65806 21676 ft 392 kts 359°
2026-05-04 19:43 25.60163 110.65668 22122 ft 376 kts 340°
2026-05-04 19:43 25.62669 110.64884 22556 ft 374 kts 335°
2026-05-04 19:44 25.65173 110.64037 22952 ft 377 kts 336°
2026-05-04 19:44 25.67698 110.63201 23360 ft 380 kts 336°
2026-05-04 19:44 25.70247 110.62375 23786 ft 382 kts 336°
2026-05-04 19:44 25.72859 110.61693 24190 ft 393 kts 346°
2026-05-04 19:45 25.75658 110.61837 24589 ft 412 kts
2026-05-04 19:45 25.78414 110.62952 25007 ft 430 kts 21°
2026-05-04 19:45 25.81011 110.64665 25468 ft 434 kts 24°
2026-05-04 19:45 25.83588 110.66442 25825 ft 437 kts 24°
2026-05-04 19:46 25.86179 110.68233 26223 ft 439 kts 24°
2026-05-04 19:46 25.88787 110.70024 26624 ft 440 kts 24°
2026-05-04 19:46 25.91401 110.71810 27021 ft 441 kts 24°
2026-05-04 19:46 25.94031 110.73598 27364 ft 444 kts 24°
2026-05-04 19:47 25.96673 110.75395 27740 ft 445 kts 23°
2026-05-04 19:47 25.99323 110.77195 28091 ft 447 kts 23°
2026-05-04 19:47 26.01992 110.79008 28414 ft 448 kts 23°
2026-05-04 19:47 26.04662 110.80822 28729 ft 450 kts 23°
2026-05-04 19:48 26.07341 110.82641 29043 ft 452 kts 23°
2026-05-04 19:48 26.10037 110.84473 29278 ft 455 kts 23°
2026-05-04 19:48 26.12783 110.86338 29532 ft 457 kts 22°
2026-05-04 19:48 26.15536 110.88212 29811 ft 458 kts 22°
2026-05-04 19:49 26.18287 110.90086 30031 ft 461 kts 22°
2026-05-04 19:49 26.21041 110.91964 30252 ft 463 kts 22°
2026-05-04 19:49 26.23807 110.93856 30469 ft 466 kts 22°
2026-05-04 19:49 26.26576 110.95751 30666 ft 468 kts 22°
2026-05-04 19:50 26.29361 110.97656 30882 ft 470 kts 22°
2026-05-04 19:50 26.32158 110.99570 31080 ft 472 kts 22°
2026-05-04 19:50 26.34975 111.01486 31297 ft 473 kts 22°
2026-05-04 19:50 26.37797 111.03395 31497 ft 474 kts 22°
2026-05-04 19:51 26.40620 111.05306 31689 ft 474 kts 22°
2026-05-04 19:51 26.43451 111.07221 31848 ft 476 kts 22°
2026-05-04 19:51 26.46293 111.09149 32027 ft 478 kts 22°
2026-05-04 19:51 26.49136 111.11084 32265 ft 477 kts 21°
2026-05-04 19:52 26.51975 111.13017 32500 ft 477 kts 21°
2026-05-04 19:52 26.54815 111.14949 32758 ft 477 kts 21°
2026-05-04 19:52 26.57653 111.16879 33039 ft 476 kts 21°
2026-05-04 19:52 26.60460 111.18838 33331 ft 477 kts 23°
2026-05-04 19:53 26.63245 111.20868 33594 ft 478 kts 24°
2026-05-04 19:53 26.66025 111.22919 33833 ft 478 kts 24°
2026-05-04 19:53 26.68812 111.24972 34056 ft 479 kts 24°
2026-05-04 19:53 26.71602 111.27023 34268 ft 479 kts 23°
2026-05-04 19:54 26.74390 111.29071 34496 ft 480 kts 24°
2026-05-04 19:54 26.77191 111.31126 34666 ft 481 kts 24°
2026-05-04 19:54 26.79995 111.33185 34841 ft 482 kts 24°
2026-05-04 19:54 26.82803 111.35251 35032 ft 483 kts 24°
2026-05-04 19:55 26.85617 111.37320 35083 ft 484 kts 24°
2026-05-04 19:55 26.91259 111.41462 35087 ft 483 kts 22°
2026-05-04 19:56 26.97012 111.45312 35083 ft 480 kts 20°
2026-05-04 19:56 27.02806 111.49102 35084 ft 481 kts 20°
2026-05-04 19:57 27.08583 111.52904 35086 ft 480 kts 20°
2026-05-04 19:57 27.14384 111.56732 35082 ft 480 kts 20°
2026-05-04 19:58 27.20236 111.60638 35079 ft 482 kts 21°
2026-05-04 19:58 27.26014 111.64638 35084 ft 481 kts 21°
2026-05-04 19:59 27.31783 111.68640 35086 ft 484 kts 22°
2026-05-04 19:59 27.37577 111.72660 35106 ft 482 kts 22°
2026-05-04 20:00 27.43326 111.76649 35137 ft 482 kts 22°
2026-05-04 20:00 27.49038 111.80614 35150 ft 482 kts 22°
2026-05-04 20:01 27.54767 111.84589 35135 ft 482 kts 22°
2026-05-04 20:01 27.60500 111.88574 35112 ft 483 kts 22°
2026-05-04 20:02 27.66238 111.92572 35093 ft 483 kts 22°
2026-05-04 20:02 27.71981 111.96579 35082 ft 484 kts 22°
2026-05-04 20:03 27.77717 112.00587 35069 ft 484 kts 22°
2026-05-04 20:03 27.83448 112.04590 35075 ft 483 kts 22°
2026-05-04 20:04 27.89149 112.08670 35076 ft 490 kts 26°
2026-05-04 20:04 27.94246 112.14009 35074 ft 508 kts 42°
2026-05-04 20:04 27.96345 112.17299 35077 ft 520 kts 52°
2026-05-04 20:05 27.97930 112.21027 35077 ft 531 kts 64°
2026-05-04 20:05 27.98906 112.25094 35073 ft 540 kts 77°
2026-05-04 20:05 27.99199 112.29347 35072 ft 544 kts 89°
2026-05-04 20:06 27.98611 112.37906 35075 ft 545 kts 94°
2026-05-04 20:06 27.97973 112.46464 35072 ft 545 kts 92°
2026-05-04 20:07 27.97416 112.55047 35066 ft 546 kts 92°
2026-05-04 20:07 27.96886 112.63619 35070 ft 546 kts 92°
2026-05-04 20:08 27.96340 112.72242 35061 ft 546 kts 93°
2026-05-04 20:08 27.95791 112.80816 35053 ft 546 kts 93°
2026-05-04 20:09 27.95238 112.89395 35056 ft 546 kts 92°
2026-05-04 20:09 27.95152 112.97986 35048 ft 545 kts 85°
2026-05-04 20:10 27.95975 113.06481 35057 ft 542 kts 78°
2026-05-04 20:10 27.97120 113.14920 35068 ft 542 kts 78°
2026-05-04 20:11 27.98240 113.23366 35072 ft 543 kts 78°
2026-05-04 20:11 27.99320 113.31818 35081 ft 542 kts 79°
2026-05-04 20:12 28.00387 113.40268 35094 ft 543 kts 79°
2026-05-04 20:12 28.01450 113.48738 35094 ft 543 kts 79°
2026-05-04 20:13 28.02512 113.57184 35095 ft 542 kts 79°
2026-05-04 20:13 28.03568 113.65645 35090 ft 542 kts 79°
2026-05-04 20:14 28.04629 113.74196 35088 ft 542 kts 79°
2026-05-04 20:14 28.05682 113.82719 35083 ft 542 kts 79°
2026-05-04 20:15 28.06727 113.91233 35093 ft 543 kts 80°
2026-05-04 20:15 28.07765 113.99762 35104 ft 543 kts 80°
2026-05-04 20:16 28.08795 114.08260 35101 ft 543 kts 80°
2026-05-04 20:16 28.09820 114.16751 34501 ft 541 kts 80°
2026-05-04 20:16 28.10334 114.21022 33545 ft 548 kts 80°
2026-05-04 20:17 28.10851 114.25326 32543 ft 553 kts 81°
2026-05-04 20:17 28.11371 114.29657 31541 ft 550 kts 81°
2026-05-04 20:17 28.11877 114.33925 30730 ft 539 kts 81°
2026-05-04 20:17 28.12415 114.38080 29939 ft 526 kts 80°
2026-05-04 20:18 28.13000 114.42128 29138 ft 514 kts 79°
2026-05-04 20:18 28.13588 114.46095 28296 ft 508 kts 79°
2026-05-04 20:18 28.14170 114.50040 27449 ft 508 kts 80°
2026-05-04 20:18 28.14748 114.54007 26590 ft 510 kts 80°
2026-05-04 20:19 28.15323 114.57991 25765 ft 511 kts 80°
2026-05-04 20:19 28.15890 114.61960 24909 ft 512 kts 80°
2026-05-04 20:19 28.16462 114.65973 24041 ft 512 kts 81°
2026-05-04 20:19 28.17029 114.69966 23209 ft 511 kts 81°
2026-05-04 20:20 28.17591 114.73937 22389 ft 509 kts 81°
2026-05-04 20:20 28.18153 114.77932 21531 ft 506 kts 81°
2026-05-04 20:20 28.18709 114.81890 20685 ft 503 kts 81°
2026-05-04 20:20 28.19259 114.85798 19840 ft 499 kts 80°
2026-05-04 20:21 28.19802 114.89681 19065 ft 493 kts 80°
2026-05-04 20:21 28.20329 114.93454 18333 ft 470 kts 80°
2026-05-04 20:21 28.21293 115.00380 17346 ft 413 kts 80°
2026-05-04 20:22 28.21729 115.03511 16924 ft 392 kts 80°
2026-05-04 20:22 28.22147 115.06522 16499 ft 379 kts 80°
2026-05-04 20:22 28.22554 115.09457 16084 ft 373 kts 80°
2026-05-04 20:22 28.22972 115.12361 15664 ft 371 kts 77°
2026-05-04 20:23 28.23852 115.15100 15217 ft 366 kts 59°
2026-05-04 20:23 28.25392 115.17388 14768 ft 362 kts 44°
2026-05-04 20:23 28.27194 115.19388 14331 ft 358 kts 42°
2026-05-04 20:23 28.29010 115.21342 13891 ft 356 kts 43°
2026-05-04 20:24 28.30794 115.23285 13459 ft 353 kts 43°
2026-05-04 20:24 28.32561 115.25237 13025 ft 351 kts 44°
2026-05-04 20:24 28.34300 115.27173 12608 ft 346 kts 44°
2026-05-04 20:24 28.36019 115.29094 12229 ft 343 kts 44°
2026-05-04 20:25 28.37703 115.30982 12039 ft 333 kts 44°
2026-05-04 20:25 28.39332 115.32810 11904 ft 321 kts 44°
2026-05-04 20:25 28.40896 115.34565 11755 ft 309 kts 44°
2026-05-04 20:25 28.42418 115.36265 11627 ft 298 kts 44°
2026-05-04 20:26 28.43879 115.37898 11513 ft 285 kts 44°
2026-05-04 20:26 28.45267 115.39454 11479 ft 270 kts 44°
2026-05-04 20:26 28.46608 115.40954 11175 ft 269 kts 44°
2026-05-04 20:26 28.47936 115.42438 10921 ft 264 kts 44°
2026-05-04 20:27 28.49258 115.43914 10528 ft 266 kts 44°
2026-05-04 20:27 28.50583 115.45394 10278 ft 261 kts 44°
2026-05-04 20:27 28.51878 115.46843 10005 ft 257 kts 44°
2026-05-04 20:27 28.53149 115.48263 9756 ft 253 kts 44°
2026-05-04 20:28 28.54401 115.49662 9484 ft 250 kts 45°
2026-05-04 20:28 28.55647 115.51056 9188 ft 248 kts 45°
2026-05-04 20:28 28.56880 115.52438 8872 ft 247 kts 45°
2026-05-04 20:28 28.58106 115.53811 8568 ft 246 kts 45°
2026-05-04 20:29 28.59335 115.55188 8270 ft 245 kts 45°
2026-05-04 20:29 28.60554 115.56553 7969 ft 243 kts 45°
2026-05-04 20:29 28.61763 115.57911 7670 ft 242 kts 45°
2026-05-04 20:29 28.62969 115.59265 7382 ft 241 kts 45°
2026-05-04 20:30 28.64160 115.60612 7085 ft 240 kts 49°
2026-05-04 20:30 28.64974 115.62261 6593 ft 242 kts 84°
2026-05-04 20:30 28.64728 115.64119 6222 ft 238 kts 115°
2026-05-04 20:30 28.63989 115.65820 5869 ft 240 kts 118°
2026-05-04 20:31 28.63254 115.67539 5513 ft 240 kts 117°
2026-05-04 20:31 28.62640 115.69319 5197 ft 240 kts 100°
2026-05-04 20:31 28.62869 115.71179 4869 ft 234 kts 68°
2026-05-04 20:31 28.63550 115.72836 4569 ft 225 kts 66°
2026-05-04 20:32 28.64209 115.74440 4173 ft 220 kts 67°
2026-05-04 20:32 28.64830 115.76018 3772 ft 216 kts 68°
2026-05-04 20:32 28.65429 115.77583 3391 ft 211 kts 68°
2026-05-04 20:32 28.65988 115.79058 3321 ft 194 kts 69°
2026-05-04 20:33 28.66624 115.80419 3362 ft 195 kts 50°
2026-05-04 20:33 28.67743 115.81308 3232 ft 196 kts 27°
2026-05-04 20:33 28.68999 115.81901 3028 ft 192 kts 21°
2026-05-04 20:33 28.70242 115.82429 2815 ft 185 kts 21°
2026-05-04 20:34 28.71435 115.82960 2607 ft 182 kts 23°
2026-05-04 20:34 28.72601 115.83509 2410 ft 181 kts 24°
2026-05-04 20:34 28.73770 115.84075 2318 ft 180 kts 24°
2026-05-04 20:34 28.74913 115.84633 2273 ft 167 kts 24°
2026-05-04 20:35 28.75941 115.85136 2059 ft 153 kts 24°
2026-05-04 20:35 28.76896 115.85602 1838 ft 142 kts 24°
2026-05-04 20:35 28.77803 115.86046 1666 ft 141 kts 24°
2026-05-04 20:35 28.78708 115.86488 1492 ft 140 kts 24°
2026-05-04 20:36 28.79611 115.86929 1316 ft 139 kts 24°
2026-05-04 20:36 28.80509 115.87368 1127 ft 138 kts 24°
2026-05-04 20:36 28.81391 115.87815 937 ft 137 kts 24°
2026-05-04 20:36 28.82277 115.88228 772 ft 136 kts 21°
2026-05-04 20:37 28.83161 115.88638 607 ft 136 kts 23°
2026-05-04 20:37 28.84034 115.89073 421 ft 135 kts 23°
2026-05-04 20:37 28.84904 115.89493 224 ft 134 kts 23°
2026-05-04 20:37 28.85728 115.89893 152 ft 110 kts 22°
2026-05-04 20:38 28.86277 115.90161 152 ft 59 kts 23°
2026-05-04 20:38 28.86434 115.90237 152 ft 9 kts 23°
2026-05-04 20:38 28.86446 115.90243 152 ft 0 kts 23°